FALCON 9 DEB (47411 NORAD) Tracking and Keplerian Element Data

This shows tracking and keplerian element data for the satellite.

Feedback or suggestion? Click here.




ElementValue
Catalog47411
NameFALCON 9 DEB
Epoch Orbit510
Epoch Day50.22506871
Epoch Year2021
RAAN56.6171
Inclination53.0373
Eccentricity0.0003909
Argument of Perigee274.3292
Mean Anonmoly85.7311
Mean Motion16.48495341
Decay Rate0.11000102
L11 47411U 21005BQ 21050.22506871 .11000102 12603-4 16409-3 0 9998
L22 47411 53.0373 56.6171 0003909 274.3292 85.7311 16.48495341 5102

Live tracking and technical data element details for FALCON 9 DEB (NORAD 47411). FALCON 9 DEB can be tracked NOW for your location showing map with azimuth and elevation plus other details from your city location.

Track the satellite on the map from your city or location and see movement details for azimuth, elevation, latitude, longitude, range, height, and movement on the map or in text.







IsCatalogInMostPopularTable: catalog: 47411, numindb: 14
Update: records affected: 1



GetName: 47411 FALCON 9 DEB

Hit Count: updated at: Sat, 10 Apr 2021 19:56:00 GMT